Date,TemperatureHighF,TemperatureAvgF,TemperatureLowF,DewpointHighF,DewpointAvgF,DewpointLowF,HumidityHigh,HumidityAvg,HumidityLow,PressureMaxIn,PressureMinIn,WindSpeedMaxMPH,WindSpeedAvgMPH,GustSpeedMaxMPH,PrecipitationSumIn
2013-1-1,46.2,38.5,31.0,45.5,33.7,26.2,100,83,65,30.33,30.03,16,5,18,0.00
2013-1-2,41.2,33.2,28.0,28.4,26.5,24.0,90,77,58,30.39,30.27,11,3,12,0.00
2013-1-3,48.0,37.3,27.0,31.4,26.9,23.1,88,68,43,30.50,30.36,11,3,13,0.00
2013-1-4,47.7,41.0,33.8,37.4,33.9,28.6,94,77,59,30.53,30.35,14,3,15,0.09
2013-1-5,59.0,44.6,35.0,39.8,35.9,31.3,94,74,40,30.38,30.18,13,3,16,0.00
2013-1-6,56.2,42.6,31.7,32.9,27.2,23.1,89,58,28,30.43,30.30,13,3,14,0.00
2013-1-7,53.4,41.9,29.0,35.1,30.1,22.4,83,64,47,30.34,30.09,15,2,16,0.00
2013-1-8,47.2,45.5,43.6,45.8,41.6,34.3,96,87,67,30.09,29.95,10,3,10,1.46
2013-1-9,56.1,52.0,46.0,55.3,51.2,44.9,97,97,96,30.11,29.91,23,7,27,1.74
2013-1-10,57.3,52.8,48.4,56.0,48.7,44.9,98,86,70,29.97,29.89,24,5,24,0.08
2013-1-11,71.8,59.0,46.7,58.2,50.4,41.8,89,74,55,29.92,29.72,23,6,31,0.00
2013-1-12,63.4,51.8,34.4,61.3,45.2,25.6,95,79,55,29.98,29.67,26,6,27,0.00
2013-1-13,41.2,33.3,27.3,26.0,21.0,17.9,72,61,47,30.31,29.98,22,8,27,0.00
2013-1-14,43.4,33.5,26.9,24.4,20.3,17.1,74,59,39,30.36,30.21,16,5,16,0.00
2013-1-15,38.4,32.9,28.4,27.5,23.8,19.2,87,70,56,30.28,30.18,14,5,16,0.03
2013-1-16,49.2,37.0,24.2,24.1,19.6,16.3,76,52,27,30.33,30.18,15,4,17,0.00
2013-1-17,60.3,46.9,36.8,35.1,30.7,23.0,76,55,33,30.50,30.27,13,4,16,0.00
2013-1-18,62.2,47.8,37.0,35.4,32.5,29.1,80,57,32,30.50,30.24,18,4,18,0.00
2013-1-19,66.5,52.9,41.1,43.1,39.5,33.1,83,62,40,30.24,30.09,20,5,22,0.00
2013-1-20,69.3,51.4,35.8,47.0,40.9,33.1,96,72,34,30.20,30.05,9,2,11,0.00
2013-1-21,55.4,46.6,37.9,39.5,31.6,27.7,88,57,40,30.30,30.10,14,3,15,0.00
2013-1-22,51.9,38.9,37.1,36.2,28.8,27.7,74,67,55,30.31,30.24,4,1,6,1.00
2013-1-23,75.0,63.5,49.9,54.4,51.7,45.9,87,67,46,30.25,30.08,16,5,22,1.00
2013-1-24,83.6,62.5,47.8,58.7,50.2,40.8,95,68,28,30.14,29.98,19,4,21,0.00
2013-1-25,48.4,44.3,39.3,42.5,39.8,36.0,92,84,76,30.22,30.01,13,3,13,0.00
2013-1-26,57.2,48.0,36.5,49.3,42.6,33.8,95,83,56,30.22,30.06,12,3,15,0.00
2013-1-27,67.3,56.0,50.6,59.8,54.4,49.2,97,95,77,30.06,29.98,18,6,23,0.01
2013-1-28,78.3,71.6,63.1,64.4,62.6,60.1,93,74,58,29.93,29.76,26,8,29,0.00
2013-1-29,77.3,65.5,51.7,65.0,54.5,25.4,92,70,31,29.77,29.40,35,10,35,0.19
2013-1-30,52.0,45.7,38.3,33.7,24.6,17.5,70,45,26,30.14,29.68,35,12,37,0.00
2013-1-31,67.7,51.9,35.8,32.0,23.1,18.5,57,34,19,30.29,30.08,25,7,26,0.00
2013-2-1,58.9,44.4,29.2,38.0,28.7,18.9,68,55,37,30.38,30.13,17,5,17,0.00
2013-2-2,66.8,55.6,47.3,43.7,36.7,30.2,75,52,26,30.32,30.12,17,4,17,0.00
2013-2-3,68.7,55.1,36.4,39.2,30.0,23.6,77,42,20,30.32,29.95,16,4,21,0.00
2013-2-4,76.5,63.6,55.7,54.2,47.7,28.8,83,58,32,29.95,29.72,21,4,23,0.00
2013-2-5,67.4,56.5,50.4,57.2,52.9,46.2,97,88,69,29.99,29.82,9,2,9,0.00
2013-2-6,73.8,63.4,57.4,59.5,57.3,56.0,97,82,56,29.97,29.78,19,6,22,0.00
2013-2-7,74.7,62.9,50.6,58.0,52.2,40.4,91,70,34,30.12,29.81,29,9,29,0.00
2013-2-8,62.2,51.0,38.9,40.4,30.0,16.5,81,50,18,30.25,30.08,12,4,15,0.00
2013-2-9,60.6,51.8,44.5,59.7,47.9,31.9,97,87,55,30.10,29.68,25,9,29,0.03
2013-2-10,66.8,57.6,47.0,63.6,36.0,22.1,97,50,19,29.99,29.60,30,6,33,0.75
2013-2-11,57.2,50.3,46.0,41.5,35.5,31.2,79,58,40,30.12,29.96,17,6,18,0.00
2013-2-12,50.0,46.2,39.5,46.3,43.0,35.1,96,89,78,30.08,29.85,21,6,26,0.16
2013-2-13,59.3,45.2,33.0,37.5,33.2,28.0,93,66,32,30.17,30.01,22,4,25,0.00
2013-2-14,69.5,55.3,37.7,40.2,33.7,26.0,85,49,20,30.08,29.95,14,4,19,1.00
2013-2-15,51.9,45.4,34.8,37.6,28.0,17.9,69,52,30,30.40,30.05,20,7,23,0.00
2013-2-16,60.5,43.7,28.3,34.2,27.0,21.8,78,54,29,30.43,30.15,11,3,13,0.00
2013-2-17,72.8,57.5,41.0,46.2,32.1,21.6,66,42,16,30.15,29.84,28,8,31,0.00
2013-2-18,74.6,60.5,45.2,54.5,42.8,31.1,79,55,21,30.12,29.74,31,10,37,0.00
2013-2-19,60.1,49.7,37.6,38.8,27.3,18.3,72,45,21,30.30,30.10,20,6,23,0.01
2013-2-20,49.0,45.1,43.4,40.9,38.4,36.7,90,78,64,30.14,29.73,32,10,32,0.09
2013-2-21,67.0,52.3,41.4,47.9,38.6,24.1,96,67,21,29.92,29.57,33,9,35,0.17
2013-2-22,49.4,37.7,28.5,35.0,26.0,21.0,80,64,43,30.16,29.91,15,5,19,0.00
2013-2-23,58.5,42.2,27.3,33.3,29.2,23.6,88,62,36,30.12,29.90,13,3,14,2.00
2013-2-24,69.8,57.3,37.3,46.7,41.7,31.9,83,58,38,29.91,29.53,24,9,31,0.00
2013-2-25,58.2,47.7,37.5,51.5,38.7,29.2,85,72,46,29.75,29.48,39,13,40,0.00
2013-2-26,57.2,45.3,35.2,33.4,31.0,28.5,77,59,36,29.93,29.74,34,8,34,0.00
2013-2-27,55.2,44.2,33.9,31.9,27.6,18.2,83,56,25,30.26,29.86,24,7,26,0.00
2013-2-28,57.7,44.4,30.6,30.6,26.9,23.5,85,54,27,30.33,30.19,21,6,23,0.00
2013-3-1,59.5,44.3,31.1,30.7,27.3,22.6,77,53,25,30.32,30.16,26,4,30,0.00
2013-3-2,57.9,41.6,28.9,32.2,27.6,23.1,85,61,34,30.45,30.23,18,5,20,0.00
2013-3-3,77.4,57.7,36.9,36.5,30.7,25.6,64,40,18,30.24,29.72,28,7,31,0.00
2013-3-4,87.2,71.1,52.7,43.4,34.7,18.7,64,30,12,29.80,29.55,29,10,34,0.00
2013-3-5,55.6,48.1,39.3,40.7,22.0,11.0,68,38,20,30.38,29.80,32,10,35,0.00
2013-3-6,60.4,45.9,30.9,25.6,21.0,17.4,63,39,20,30.47,30.17,11,4,14,0.00
2013-3-7,71.2,55.4,38.8,46.0,33.3,23.0,67,45,20,30.21,30.03,24,7,24,0.00
2013-3-8,61.5,58.0,54.6,58.2,53.0,44.8,92,84,67,30.12,29.91,22,9,25,0.00
2013-3-9,77.0,64.1,56.9,64.7,59.1,54.7,96,85,63,29.91,29.58,31,9,31,0.78
2013-3-10,57.6,49.9,39.7,56.0,36.3,28.6,95,60,45,30.09,29.70,33,11,37,0.01
2013-3-11,62.4,46.1,30.5,30.1,25.2,20.3,74,47,24,30.16,29.99,17,5,19,0.00
2013-3-12,67.8,54.1,42.1,34.9,31.4,26.8,60,43,29,30.31,30.02,22,6,22,0.00
2013-3-13,69.3,55.6,42.1,41.2,36.0,29.3,70,49,33,30.43,30.26,15,4,21,0.00
2013-3-14,78.1,61.5,46.4,46.1,42.5,39.2,78,53,29,30.31,30.13,20,6,27,0.00
2013-3-15,81.7,67.8,52.2,52.4,47.1,44.0,84,51,28,30.14,29.82,26,7,27,0.00
2013-3-16,85.5,71.2,56.8,56.8,51.2,42.9,75,51,34,29.82,29.59,30,9,30,0.00
2013-3-17,71.5,62.8,52.3,60.3,49.0,42.0,83,62,41,29.78,29.64,22,5,22,0.00
2013-3-18,68.8,61.7,52.1,57.1,48.0,43.6,86,62,44,29.96,29.61,21,6,24,0.00
2013-3-19,64.8,56.4,43.7,49.0,41.9,34.9,73,59,43,30.10,29.92,16,6,20,0.00
2013-3-20,66.7,56.6,45.8,39.8,32.7,26.6,68,43,24,30.29,30.00,17,5,17,0.00
2013-3-21,73.3,61.7,51.2,57.9,45.2,32.4,72,55,41,30.01,29.47,33,9,33,0.00
2013-3-22,67.3,52.7,46.8,58.1,47.4,41.5,88,82,71,29.82,29.50,24,6,26,0.00
2013-3-23,56.2,49.5,43.5,51.1,46.7,41.6,96,90,82,29.89,29.64,27,4,27,0.86
2013-3-24,51.7,43.0,35.6,46.6,28.1,19.8,90,58,33,30.19,29.83,31,11,33,0.00
2013-3-25,52.4,41.5,29.3,24.4,20.5,15.7,73,45,24,30.42,30.19,19,5,22,0.00
2013-3-26,59.6,45.1,29.9,30.0,23.3,17.3,77,44,27,30.50,30.26,13,3,15,0.00
2013-3-27,71.0,55.3,37.4,45.9,36.4,26.5,66,50,35,30.28,30.04,28,8,30,0.00
2013-3-28,71.7,60.3,49.8,57.5,51.8,45.0,90,74,59,30.16,30.02,23,7,23,0.00
2013-3-29,76.0,66.4,57.0,58.1,56.4,54.3,92,72,52,30.13,29.92,22,7,26,0.00
2013-3-30,80.0,71.5,56.1,63.2,60.4,52.5,91,69,52,30.07,29.81,21,6,28,1.14
2013-3-31,74.7,67.4,61.9,61.7,56.9,53.0,88,70,50,29.95,29.75,24,5,28,0.00
2013-4-1,80.0,66.7,53.5,55.4,52.1,47.3,89,63,33,30.04,29.86,18,4,19,0.00
2013-4-2,71.8,60.8,50.7,62.3,56.2,48.5,95,86,58,29.97,29.83,39,6,53,0.11
2013-4-3,53.0,46.4,43.2,49.3,45.1,41.7,97,95,86,30.17,29.95,15,6,17,2.09
2013-4-4,48.0,43.3,40.5,41.8,39.7,38.1,100,87,77,30.24,30.13,19,6,19,0.01
2013-4-5,68.0,51.6,33.5,49.1,42.8,31.8,96,74,49,30.27,30.00,14,4,17,0.00
2013-4-6,78.7,65.4,55.2,58.8,52.2,46.2,77,64,46,30.00,29.76,21,8,26,0.00
2013-4-7,75.5,66.6,57.7,63.8,60.0,55.3,93,80,67,29.84,29.66,23,9,25,0.00
2013-4-8,75.4,69.8,65.7,65.9,62.7,59.9,85,78,67,29.70,29.58,24,10,35,0.00
2013-4-9,79.7,72.8,60.6,67.0,65.0,48.5,85,77,61,29.68,29.55,27,11,32,0.00
2013-4-10,59.4,41.3,34.6,48.9,36.9,32.7,94,85,68,30.01,29.68,26,10,28,0.48
2013-4-11,63.4,49.1,37.9,41.0,36.0,30.4,86,63,37,30.02,29.81,14,4,16,0.00
2013-4-12,78.3,60.1,43.4,49.9,43.5,38.4,86,58,25,29.98,29.82,17,4,17,0.00
2013-4-13,77.3,66.6,56.0,50.8,46.1,40.0,70,49,31,29.91,29.73,27,8,27,0.00
2013-4-14,92.2,72.3,56.6,66.3,56.4,43.8,87,62,19,29.74,29.45,24,7,28,0.00
2013-4-15,89.3,77.7,65.2,67.0,64.7,61.1,92,66,43,29.67,29.53,24,8,25,0.00
2013-4-16,86.1,76.2,68.4,68.4,65.7,62.9,89,71,53,29.81,29.67,23,9,24,0.00
2013-4-17,84.8,76.7,71.3,69.5,67.9,66.4,92,75,56,29.81,29.52,28,12,32,0.00
2013-4-18,76.7,53.3,43.3,70.5,43.5,33.8,94,71,47,30.15,29.48,41,12,42,0.56
2013-4-19,63.6,50.0,35.9,34.5,29.8,23.8,85,51,22,30.31,30.13,17,5,19,0.00
2013-4-20,70.0,57.3,43.0,37.3,32.2,24.9,68,42,20,30.17,29.95,27,8,30,0.00
2013-4-21,70.3,59.8,49.8,53.5,48.3,37.1,81,66,50,30.15,30.00,20,8,22,0.00
2013-4-22,81.8,67.3,52.2,59.7,54.9,49.4,93,67,43,30.06,29.75,25,7,25,0.00
2013-4-23,68.1,52.3,40.1,60.3,45.7,35.7,87,78,73,30.20,29.72,22,9,24,0.01
2013-4-24,59.7,47.6,34.9,39.1,33.1,28.2,83,59,38,30.35,30.21,21,7,24,0.00
2013-4-25,71.5,60.3,50.3,46.5,41.1,36.7,67,50,32,30.33,30.09,20,5,20,0.00
2013-4-26,78.0,66.9,60.0,66.5,58.1,46.4,91,74,60,30.12,29.92,29,6,31,0.00
2013-4-27,74.9,68.8,59.6,66.7,59.4,53.8,87,73,49,30.10,29.94,16,5,16,0.00
2013-4-28,84.3,72.0,51.8,65.8,60.7,48.9,95,69,50,29.99,29.79,17,5,19,0.00
2013-4-29,85.8,74.5,61.9,65.8,60.2,47.2,91,64,28,29.85,29.71,22,6,26,0.00
2013-4-30,81.0,71.4,59.1,65.6,61.1,56.7,94,71,55,29.77,29.66,23,7,26,0.00
2013-5-1,82.4,71.8,62.4,66.1,63.6,60.7,95,77,56,29.93,29.71,18,6,21,0.00
2013-5-2,71.8,56.3,42.6,63.6,49.5,37.0,88,78,70,30.33,29.93,27,9,30,0.00
2013-5-3,65.3,54.6,36.1,34.7,29.4,24.8,81,42,22,30.34,30.01,24,7,24,0.00
2013-5-4,74.7,58.7,36.2,37.0,31.7,28.2,81,40,20,30.01,29.88,23,5,26,0.00
2013-5-5,69.8,56.2,41.9,47.0,42.3,36.3,83,61,43,30.16,30.01,18,4,21,0.00
2013-5-6,75.2,62.4,47.3,52.7,48.7,43.1,88,63,44,30.11,29.98,10,2,11,0.00
2013-5-7,63.5,62.4,61.6,54.0,53.3,52.2,76,72,67,30.01,30.00,7,4,7,0.00
2013-5-8,80.8,76.8,67.5,63.7,60.9,56.1,69,58,53,29.93,29.80,21,7,25,0.00
2013-5-9,73.8,68.8,63.3,65.3,62.0,56.4,94,79,58,29.97,29.77,28,6,28,0.47
2013-5-10,79.5,68.0,63.0,65.2,62.0,57.7,97,83,53,30.02,29.82,28,4,36,0.02
2013-5-11,79.5,68.3,57.3,59.8,52.8,46.0,90,62,33,30.14,30.02,24,5,24,0.00
2013-5-12,76.5,66.3,57.8,53.6,45.5,38.9,79,49,29,30.25,30.10,15,4,16,0.00
2013-5-13,78.0,63.5,56.1,50.7,44.9,41.5,63,51,37,30.20,30.11,16,4,17,0.00
2013-5-14,87.0,75.5,64.2,62.8,55.8,50.6,72,52,31,30.12,29.90,23,7,23,0.00
2013-5-15,83.0,73.6,67.1,70.1,66.3,62.7,92,78,61,29.98,29.63,26,8,32,0.55
2013-5-16,85.8,73.3,62.0,72.7,67.1,60.0,95,82,62,29.75,29.66,18,6,21,0.00
2013-5-17,92.6,80.4,72.4,74.8,72.2,69.7,93,78,53,29.77,29.67,21,7,24,0.00
2013-5-18,93.8,82.2,71.9,72.7,69.8,64.3,87,68,46,29.80,29.65,26,9,28,0.00
2013-5-19,79.8,73.8,70.1,68.0,65.9,64.2,87,77,59,29.74,29.69,21,8,24,0.00
2013-5-20,92.2,82.8,72.0,71.1,69.2,66.8,86,65,49,29.72,29.53,30,11,33,0.00
2013-5-21,79.8,71.7,59.3,70.2,63.4,54.3,91,76,55,29.83,29.63,26,8,31,0.02
2013-5-22,87.6,71.1,54.0,62.0,54.6,42.8,94,62,21,29.91,29.78,18,4,20,0.01
2013-5-23,85.0,77.3,69.7,71.9,69.6,62.4,93,78,64,30.02,29.81,25,8,26,0.00
2013-5-24,83.2,74.7,66.2,72.4,69.0,63.5,95,83,67,30.10,29.87,28,6,28,0.43
2013-5-25,78.8,71.4,65.5,71.6,67.4,63.3,94,87,73,30.10,29.96,18,5,19,0.05
2013-5-26,87.2,77.7,71.1,72.5,69.7,67.9,91,77,58,30.02,29.84,20,7,22,0.00
2013-5-27,84.7,76.4,69.1,71.2,68.4,65.7,90,77,61,29.92,29.72,26,8,28,0.00
2013-5-28,84.5,77.8,71.1,70.3,68.1,66.0,84,73,61,29.81,29.60,33,9,41,0.00
2013-5-29,84.8,76.7,73.1,72.4,69.4,66.2,92,78,63,29.72,29.57,34,12,36,0.00
2013-5-30,88.0,80.0,73.6,72.3,70.3,68.4,86,73,57,29.73,29.61,27,10,32,0.00
2013-5-31,92.5,83.2,76.1,73.8,72.1,70.6,84,70,53,29.75,29.59,22,10,26,0.00
2013-6-1,88.3,79.7,76.3,73.5,69.9,57.0,81,72,51,29.90,29.62,22,7,26,0.00
2013-6-2,83.8,74.6,64.0,60.7,56.8,51.2,83,55,36,30.04,29.88,13,4,13,0.00
2013-6-3,90.8,76.1,61.7,63.8,57.9,51.2,79,56,34,29.96,29.76,17,5,17,0.00
2013-6-4,93.6,81.7,70.2,70.3,65.4,60.6,84,60,35,29.86,29.68,22,8,31,0.00
2013-6-5,91.3,83.0,71.9,68.9,66.8,64.3,83,59,44,29.86,29.67,21,7,24,0.00
2013-6-6,79.6,72.8,67.4,69.0,66.1,63.9,96,80,61,29.91,29.74,23,4,26,0.32
2013-6-7,83.0,72.6,61.7,65.0,58.9,51.9,95,66,36,29.99,29.84,14,3,16,0.00
2013-6-8,88.6,76.6,61.3,61.5,57.6,55.1,82,54,34,29.91,29.71,20,6,23,0.00
2013-6-9,87.8,76.6,64.5,69.3,66.0,61.4,94,71,50,29.90,29.77,26,4,34,0.55
2013-6-10,97.4,83.1,68.1,71.0,64.0,54.4,90,57,24,29.93,29.82,17,5,19,0.00
2013-6-11,92.8,83.4,73.6,72.6,68.3,60.7,87,62,44,29.95,29.84,11,1,14,0.00
2013-6-12,94.5,84.1,73.1,71.6,68.7,66.6,88,62,41,29.99,29.84,0,0,0,0.00
2013-6-13,97.8,85.6,72.6,71.8,68.1,63.1,87,59,34,29.99,29.81,0,0,0,0.00
2013-6-14,94.2,83.3,71.7,69.3,66.6,63.1,78,58,39,29.94,29.82,0,0,0,0.00
2013-6-15,89.3,80.1,74.2,73.7,70.6,68.2,84,73,51,29.94,29.82,0,0,0,0.00
2013-6-16,96.8,84.6,72.5,71.5,68.6,66.7,83,61,39,29.96,29.78,0,0,0,0.00
2013-6-17,96.1,83.5,67.7,74.2,70.1,65.1,94,66,42,29.97,29.75,0,0,0,0.07
2013-6-18,87.2,76.8,65.7,74.1,68.5,63.6,96,77,51,29.96,29.81,0,0,0,0.97
2013-6-19,92.1,76.2,69.1,76.0,69.7,64.0,96,82,50,29.94,29.74,0,0,0,0.21
2013-6-20,94.4,82.2,70.1,71.6,68.4,66.0,92,66,40,29.98,29.83,0,0,0,0.06
2013-6-21,94.9,84.5,74.9,72.2,67.3,63.2,86,58,37,29.98,29.86,0,0,0,0.00
2013-6-22,95.5,84.4,71.7,71.1,65.1,59.6,82,55,31,29.95,29.79,0,0,0,0.00
2013-6-23,94.8,85.1,73.9,70.7,67.9,63.3,81,58,38,29.90,29.78,0,0,0,0.00
2013-6-24,95.6,85.0,73.4,70.9,67.4,64.5,86,58,38,29.94,29.79,0,0,0,0.00
2013-6-25,98.2,87.1,76.5,71.3,67.3,63.0,79,54,33,29.90,29.74,0,0,0,0.00
2013-6-26,97.7,87.3,76.3,73.2,69.0,63.7,76,56,40,29.87,29.76,0,0,0,0.00
2013-6-27,102.0,89.1,77.8,71.2,67.0,61.4,75,50,31,29.95,29.77,11,1,13,0.00
2013-6-28,102.9,89.1,74.4,69.5,63.9,60.2,64,45,27,29.89,29.74,14,0,17,0.00
2013-6-29,97.4,86.1,72.5,69.9,64.9,59.4,78,52,31,29.85,29.72,0,0,0,0.00
2013-6-30,92.9,82.4,71.7,63.8,58.8,54.6,71,47,30,29.89,29.77,0,0,1,0.00
2013-7-1,85.7,76.8,67.0,58.8,55.4,51.3,67,49,32,30.00,29.89,5,0,5,0.00
2013-7-2,87.0,76.1,62.7,56.1,51.0,43.3,69,44,26,30.06,29.95,0,0,0,0.00
2013-7-3,90.3,77.5,60.0,56.0,50.2,46.2,72,41,22,30.02,29.88,4,0,5,0.00
2013-7-4,95.0,82.3,69.0,62.8,55.9,46.3,73,44,20,29.93,29.80,0,0,0,0.00
2013-7-5,96.6,85.0,69.5,62.9,57.8,51.3,76,43,23,29.92,29.76,0,0,0,0.00
2013-7-6,96.0,85.1,73.5,66.7,61.1,52.1,72,47,24,29.87,29.76,0,0,0,0.00
2013-7-7,96.1,85.8,73.5,69.8,65.0,60.2,75,52,33,29.92,29.82,0,0,0,0.00
2013-7-8,96.3,84.8,75.9,73.7,69.7,62.8,85,62,38,30.01,29.89,0,0,0,0.00
2013-7-9,99.4,87.5,76.3,71.9,65.6,59.9,80,52,28,30.05,29.89,0,0,0,0.00
2013-7-10,101.3,90.0,79.4,72.3,66.6,61.3,75,49,28,29.99,29.81,11,0,13,0.00
2013-7-11,101.5,86.5,77.2,74.0,68.5,62.9,88,57,31,29.90,29.77,11,0,13,0.11
2013-7-12,100.7,86.9,72.2,72.5,67.7,61.6,88,57,29,29.89,29.79,17,2,26,0.05
2013-7-13,100.6,89.6,77.1,70.9,66.1,60.3,75,48,30,29.91,29.76,21,4,22,0.00
2013-7-14,85.0,70.8,65.7,68.0,63.9,58.6,96,81,47,29.96,29.79,31,6,33,0.25
2013-7-15,71.7,67.9,65.2,70.8,66.9,64.2,97,97,96,30.03,29.92,16,4,17,0.04
2013-7-16,81.7,74.7,70.5,75.0,71.6,69.6,97,91,74,30.13,30.00,22,6,23,0.01
2013-7-17,83.1,73.2,69.9,76.0,70.9,68.3,97,93,69,30.17,30.08,21,3,25,0.00
2013-7-18,90.6,79.5,68.5,74.9,69.9,66.6,98,75,46,30.15,29.95,17,4,17,0.00
2013-7-19,93.8,82.7,72.4,72.1,69.5,65.7,91,67,41,30.00,29.84,18,5,21,0.00
2013-7-20,94.1,81.4,71.8,73.2,70.1,66.9,92,71,43,29.92,29.77,22,4,26,0.00
2013-7-21,95.4,84.4,73.6,73.4,70.6,67.0,88,66,41,29.86,29.76,16,6,17,0.00
2013-7-22,95.2,85.3,75.7,75.4,72.4,68.7,90,67,43,29.90,29.78,18,8,19,0.00
2013-7-23,95.9,86.6,77.8,76.8,72.2,66.0,85,63,46,29.89,29.75,19,8,21,0.00
2013-7-24,97.2,85.1,76.3,74.4,70.8,65.6,86,64,37,29.96,29.79,22,6,28,0.00
2013-7-25,94.0,84.3,74.7,76.8,72.8,69.6,89,70,48,29.98,29.89,14,5,16,0.00
2013-7-26,95.0,84.9,77.8,77.3,71.8,69.1,76,65,49,29.95,29.79,22,7,25,0.01
2013-7-27,88.3,78.3,69.8,70.3,66.3,60.1,92,69,41,29.98,29.85,16,6,20,0.00
2013-7-28,90.7,79.5,66.2,70.6,67.7,63.8,94,69,46,29.93,29.79,17,6,19,0.00
2013-7-29,96.4,85.8,76.9,74.9,70.5,63.5,86,62,39,29.91,29.82,21,9,23,0.00
2013-7-30,98.0,86.8,76.4,73.0,69.7,64.7,82,58,41,29.99,29.86,22,8,23,0.00
2013-7-31,101.7,88.1,77.6,73.4,69.4,66.6,72,55,37,29.99,29.84,17,5,19,0.00
2013-8-1,100.2,88.6,75.8,77.0,72.7,67.9,90,62,39,29.94,29.80,13,4,16,0.00
2013-8-2,100.4,89.5,79.2,69.8,67.3,64.4,68,50,33,29.86,29.77,23,7,23,0.00
2013-8-3,99.1,88.1,78.4,71.0,67.3,63.8,71,52,32,29.93,29.83,19,7,19,0.00
2013-8-4,98.6,87.8,77.3,71.7,68.5,64.2,78,55,34,29.99,29.84,18,7,19,0.00
2013-8-5,101.0,89.6,78.5,70.4,66.6,62.4,74,49,30,29.93,29.76,17,6,19,0.00
2013-8-6,102.4,90.8,79.2,71.5,66.9,62.4,74,48,28,29.83,29.70,21,8,21,0.00
2013-8-7,104.0,91.8,80.5,71.5,67.9,62.7,69,48,29,29.80,29.67,21,8,21,0.00
2013-8-8,99.3,85.8,77.5,75.4,68.4,62.0,86,58,34,29.83,29.69,15,5,16,0.03
2013-8-9,101.3,86.4,76.9,73.5,67.5,63.0,77,56,30,29.92,29.76,18,5,19,0.01
2013-8-10,96.9,84.5,71.4,75.1,70.0,66.9,91,64,41,30.01,29.89,16,5,18,0.00
2013-8-11,100.2,86.8,73.2,72.2,68.5,60.6,82,57,30,30.01,29.87,14,4,18,0.00
2013-8-12,98.0,86.8,74.8,72.2,68.4,65.6,82,57,36,29.98,29.83,16,5,17,0.00
2013-8-13,99.1,86.8,76.5,72.8,69.3,65.7,84,58,37,29.95,29.80,27,7,27,0.31
2013-8-14,89.4,79.3,74.2,75.2,72.0,69.6,93,79,55,29.99,29.87,17,5,22,0.01
2013-8-15,87.3,79.0,72.7,71.9,70.2,68.1,95,76,55,30.00,29.88,16,5,17,0.00
2013-8-16,88.1,76.3,65.0,69.2,66.0,61.0,95,72,46,30.06,29.89,30,6,35,0.10
2013-8-17,89.5,77.3,65.4,65.2,61.6,58.9,85,61,39,30.06,29.91,14,4,17,0.00
2013-8-18,90.8,78.9,64.8,63.8,61.3,58.8,85,57,38,30.05,29.93,14,4,18,0.00
2013-8-19,94.7,82.5,68.4,63.6,60.1,57.2,73,49,31,30.01,29.86,15,5,17,0.00
2013-8-20,94.4,83.8,71.4,67.2,60.2,55.8,71,47,29,29.97,29.87,22,5,27,0.00
2013-8-21,93.9,83.5,73.3,69.3,65.8,57.8,80,57,37,30.02,29.90,15,5,16,0.00
2013-8-22,95.3,86.6,74.2,69.5,66.6,65.1,79,53,38,30.02,29.85,18,5,19,0.00
2013-8-23,97.4,87.1,75.8,72.4,67.6,63.9,78,54,34,29.96,29.82,17,5,22,0.00
2013-8-24,97.3,86.0,74.2,70.3,67.3,60.6,75,55,30,29.99,29.88,21,4,26,0.00
2013-8-25,95.9,86.3,75.9,71.0,66.9,63.5,75,54,35,30.07,29.96,21,7,25,0.00
2013-8-26,94.2,83.8,74.4,70.8,67.0,62.5,79,59,37,30.09,29.97,23,8,25,0.00
2013-8-27,89.9,78.3,73.2,71.5,68.8,65.7,87,74,47,30.06,29.96,23,7,26,0.01
2013-8-28,96.5,83.4,70.0,71.4,65.4,61.0,91,59,32,30.05,29.92,15,4,17,0.00
2013-8-29,100.4,88.1,75.4,68.8,64.6,61.6,71,48,31,30.01,29.88,12,4,13,0.00
2013-8-30,103.2,89.7,72.8,66.4,61.7,56.8,69,42,23,29.94,29.78,12,4,14,0.00
2013-8-31,103.6,90.5,76.4,66.7,62.7,60.9,62,41,26,29.83,29.70,14,4,15,0.00
2013-9-1,103.2,89.4,76.4,71.1,66.2,61.5,81,49,27,29.81,29.68,24,5,26,0.07
2013-9-2,90.0,77.6,70.1,74.9,70.3,67.0,95,79,51,29.97,29.78,29,4,32,0.08
2013-9-3,96.3,84.0,73.0,71.7,67.7,60.5,92,62,33,29.96,29.82,14,3,16,0.00
2013-9-4,99.0,84.4,67.1,69.2,64.2,60.7,85,54,30,29.99,29.88,14,4,16,0.00
2013-9-5,98.0,86.6,73.8,71.4,67.7,63.3,83,56,33,30.03,29.91,15,4,15,0.00
2013-9-6,99.0,86.3,72.7,71.6,66.3,60.7,82,54,30,30.02,29.87,13,4,15,0.00
2013-9-7,97.0,85.9,75.2,71.4,66.1,60.3,78,54,31,29.97,29.83,20,5,27,0.00
2013-9-8,94.2,82.3,68.7,72.1,66.6,62.3,92,62,35,29.92,29.79,18,6,21,0.00
2013-9-9,93.0,82.0,71.1,70.1,66.7,63.8,87,62,39,29.94,29.83,28,7,29,0.00
2013-9-10,90.0,79.0,74.0,74.8,69.2,65.6,86,73,46,30.03,29.92,25,6,25,0.00
2013-9-11,93.8,81.5,69.6,71.5,66.3,61.7,90,63,37,30.07,29.93,18,5,20,0.00
2013-9-12,94.4,82.2,69.7,72.5,66.7,63.1,82,61,39,30.02,29.87,15,3,18,0.00
2013-9-13,95.7,83.9,71.2,69.1,66.1,62.8,85,57,35,29.92,29.75,15,4,16,0.00
2013-9-14,94.2,83.9,75.2,69.9,66.9,63.8,76,58,39,29.88,29.77,19,6,20,0.00
2013-9-15,92.7,83.8,74.2,70.1,66.7,63.8,77,58,40,29.96,29.86,20,6,21,0.00
2013-9-16,93.3,84.3,74.5,70.9,65.6,62.0,78,55,36,30.02,29.89,20,5,21,0.00
2013-9-17,90.3,83.1,74.8,69.3,65.1,61.4,70,55,43,30.01,29.87,16,4,17,0.00
2013-9-18,95.2,84.4,74.9,70.5,65.7,59.4,79,56,32,29.95,29.79,21,6,22,0.00
2013-9-19,85.0,78.8,69.6,71.7,69.3,63.8,95,74,57,29.93,29.80,16,5,18,0.01
2013-9-20,72.1,70.2,66.8,70.6,68.9,64.4,97,96,92,29.92,29.80,19,6,23,0.07
2013-9-21,81.2,69.2,57.8,64.4,54.2,46.9,94,63,32,29.98,29.84,18,6,19,0.01
2013-9-22,81.4,69.5,55.7,57.6,52.2,49.6,82,56,35,29.91,29.75,13,4,15,0.00
2013-9-23,85.8,71.8,56.7,58.2,54.5,51.5,84,57,32,29.82,29.69,19,6,22,0.00
2013-9-24,91.2,77.3,63.1,66.3,58.0,51.8,86,55,33,29.90,29.78,15,3,16,0.00
2013-9-25,92.3,78.6,59.3,62.2,56.1,48.8,77,48,29,29.85,29.70,13,4,14,0.00
2013-9-26,91.4,79.3,67.6,62.6,57.5,53.5,73,49,32,29.82,29.72,24,7,24,0.00
2013-9-27,85.6,78.4,69.9,73.1,69.3,58.7,87,74,61,29.86,29.75,22,9,23,0.00
2013-9-28,82.5,73.7,63.9,74.5,68.6,60.1,95,84,73,30.02,29.78,19,8,24,0.00
2013-9-29,79.4,68.7,59.8,60.1,53.5,47.4,87,62,34,30.05,29.89,17,4,19,0.00
2013-9-30,85.4,71.0,53.8,60.2,53.6,48.2,84,57,31,29.90,29.76,13,4,15,0.00
2013-10-1,86.4,74.8,61.7,71.7,63.8,57.2,86,70,49,29.86,29.78,21,7,23,0.00
2013-10-2,87.9,78.4,71.5,72.3,70.2,66.5,93,77,54,29.91,29.78,20,8,21,0.00
2013-10-3,90.1,80.3,71.4,72.7,69.9,66.2,94,73,48,29.85,29.72,22,9,25,0.00
2013-10-4,88.3,78.3,70.0,70.3,68.5,67.1,92,73,51,29.84,29.74,20,8,24,0.00
2013-10-5,76.7,61.8,49.3,70.1,54.1,39.8,95,77,48,30.10,29.78,25,8,26,0.23
2013-10-6,74.9,60.1,47.2,50.1,41.9,35.2,95,58,24,30.16,30.04,23,6,25,0.01
2013-10-7,81.7,65.5,48.9,48.8,42.9,37.7,78,47,25,30.14,30.02,10,3,13,0.00
2013-10-8,82.1,67.7,52.1,51.2,46.9,41.9,86,49,29,30.06,29.92,17,6,18,0.00
2013-10-9,82.0,68.7,54.7,56.1,52.1,48.6,82,58,35,30.02,29.90,21,7,23,0.00
2013-10-10,82.6,70.9,58.4,65.1,59.6,53.7,88,69,50,29.99,29.80,21,8,23,0.00
2013-10-11,85.6,76.0,68.3,70.2,67.3,61.2,90,75,58,29.86,29.75,24,8,24,0.00
2013-10-12,91.6,78.0,69.5,74.7,69.8,64.1,94,78,45,30.01,29.81,23,6,23,0.00
2013-10-13,77.1,71.1,68.0,68.2,66.6,65.1,94,86,70,30.15,30.00,15,5,20,0.00
2013-10-14,78.0,71.2,67.7,72.2,69.0,66.3,97,93,77,30.07,29.84,18,8,21,0.01
2013-10-15,73.1,62.6,50.6,71.6,60.9,49.5,96,94,91,30.09,29.83,22,7,24,0.00
2013-10-16,63.2,55.9,51.0,52.1,48.8,44.3,96,78,56,30.11,30.01,18,6,20,0.00
2013-10-17,70.4,56.8,43.9,48.8,45.4,41.2,92,68,41,30.13,29.96,9,4,10,0.00
2013-10-18,66.4,57.4,46.4,58.5,52.2,43.9,96,83,70,30.13,29.86,27,6,30,0.00
2013-10-19,63.8,50.8,39.3,43.9,40.0,36.8,91,69,38,30.24,30.07,23,7,28,0.00
2013-10-20,71.8,58.0,43.3,52.2,45.4,38.6,86,64,45,30.07,29.83,23,7,23,0.00
2013-10-21,68.1,58.8,49.4,58.9,51.9,46.0,91,78,68,30.11,29.86,17,5,21,0.00
2013-10-22,75.3,59.2,43.5,48.4,44.0,40.0,92,62,31,30.17,30.02,13,5,14,0.00
2013-10-23,82.5,67.0,53.2,51.3,45.6,42.6,69,48,25,30.11,30.00,17,5,19,0.00
2013-10-24,79.9,66.2,54.0,52.9,47.7,42.3,72,53,28,30.23,30.03,13,5,16,0.00
2013-10-25,70.0,61.5,47.9,55.0,51.6,41.7,83,70,57,30.35,30.19,16,6,18,2.00
2013-10-26,76.4,65.5,57.5,64.1,58.7,51.7,87,79,64,30.20,29.97,22,8,22,0.00
2013-10-27,66.5,62.4,57.4,61.5,57.7,55.8,97,85,71,30.11,29.97,8,3,10,0.00
2013-10-28,73.3,65.7,55.8,67.3,62.4,54.4,97,89,76,30.05,29.93,22,7,24,0.00
2013-10-29,76.6,71.5,67.7,70.7,67.6,64.6,93,88,80,30.00,29.91,20,8,22,0.00
2013-10-30,73.8,71.0,66.8,72.3,68.9,65.9,97,93,85,29.95,29.69,23,8,23,0.00
2013-10-31,71.7,66.8,54.0,68.7,51.9,38.2,98,63,34,29.84,29.65,28,9,33,0.00
2013-11-1,73.1,60.8,49.1,47.4,43.8,37.8,83,57,29,30.10,29.79,19,6,23,0.00
2013-11-2,66.8,56.3,47.2,42.3,37.5,33.7,76,51,30,30.30,30.10,17,5,18,0.00
2013-11-3,66.3,55.8,39.4,44.7,39.9,33.6,88,56,39,30.20,29.92,23,8,28,0.00
2013-11-4,60.6,57.8,55.4,59.8,54.6,43.9,97,90,62,30.03,29.91,22,8,23,0.00
2013-11-5,68.5,64.7,59.6,67.1,63.6,58.8,100,96,92,29.99,29.86,17,8,20,0.00
2013-11-6,68.7,53.1,42.3,67.2,45.2,35.9,96,76,45,30.37,29.91,26,9,27,0.00
2013-11-7,62.5,49.7,37.1,41.4,37.4,32.8,86,65,38,30.52,30.36,11,3,11,0.00
2013-11-8,63.2,53.7,39.3,44.2,39.7,32.4,90,61,32,30.39,30.09,22,6,23,0.00
2013-11-9,68.1,59.6,54.2,55.8,50.1,42.1,89,71,59,30.16,30.04,20,8,25,0.00
2013-11-10,65.7,56.0,48.5,56.9,51.6,46.9,94,86,72,30.31,30.16,11,5,11,0.00
2013-11-11,73.3,59.5,46.5,58.2,52.0,43.9,98,77,54,30.27,30.13,11,3,11,0.00
2013-11-12,57.9,45.7,31.7,55.3,33.6,20.0,93,65,32,30.69,30.26,32,9,32,0.00
2013-11-13,52.5,37.8,25.6,28.5,24.2,19.1,76,60,35,30.70,30.38,11,4,12,0.00
2013-11-14,58.6,47.0,33.1,42.2,31.7,26.3,78,58,32,30.38,29.99,20,7,22,0.01
2013-11-15,74.4,59.4,44.4,57.3,49.4,41.7,92,72,41,29.99,29.79,18,6,19,0.00
2013-11-16,80.1,68.8,60.7,65.8,60.9,56.5,89,77,53,29.82,29.61,27,9,28,0.00
2013-11-17,86.0,73.8,62.2,65.8,52.6,37.6,89,54,22,29.97,29.64,22,8,24,0.00
2013-11-18,69.5,61.6,55.0,37.8,33.1,29.2,46,35,25,30.14,29.96,17,6,17,0.00
2013-11-19,67.7,59.3,53.0,43.3,41.1,37.2,67,52,40,30.14,29.95,21,7,21,0.00
2013-11-20,67.5,60.1,51.1,59.0,51.1,42.0,88,72,65,29.97,29.83,23,9,24,0.00
2013-11-21,77.0,62.6,37.3,70.2,59.8,35.7,97,91,77,30.23,29.89,31,7,31,0.00
2013-11-22,37.3,32.5,30.6,35.7,30.6,28.6,95,93,87,30.50,30.23,27,11,33,0.00
2013-11-23,38.4,34.2,31.2,35.2,31.2,26.0,95,89,73,30.59,30.48,19,8,19,0.01
2013-11-24,34.8,32.3,29.8,29.2,26.8,23.3,91,80,72,30.60,30.33,18,6,19,0.00
2013-11-25,36.2,33.7,31.1,34.1,31.9,28.8,95,93,91,30.37,30.17,16,4,18,0.00
2013-11-26,50.2,40.4,34.3,35.2,31.2,26.6,94,72,42,30.42,30.20,30,11,33,0.00
2013-11-27,46.3,36.1,26.3,26.6,19.7,14.4,85,54,30,30.51,30.36,16,5,22,0.06
2013-11-28,55.8,41.6,30.5,30.3,25.7,20.3,72,55,30,30.44,30.32,14,5,15,0.00
2013-11-29,59.2,45.2,30.8,41.7,34.9,26.8,88,69,41,30.50,30.32,16,5,19,0.00
2013-11-30,66.0,52.1,38.2,53.3,46.8,36.4,100,83,62,30.34,30.12,20,6,26,0.00
2013-12-1,65.0,58.0,51.2,56.9,53.6,48.7,95,86,74,30.12,29.88,18,5,20,0.00
2013-12-2,71.0,55.4,37.9,51.7,42.1,36.3,97,67,31,29.88,29.63,13,3,13,0.00
2013-12-3,82.1,63.8,45.4,41.1,38.1,32.4,72,42,18,29.63,29.48,18,7,20,0.00
2013-12-4,79.3,64.5,45.0,51.5,44.3,33.2,65,49,33,29.87,29.54,23,6,26,0.00
2013-12-5,44.9,31.5,24.2,33.3,22.4,16.3,93,71,51,30.21,29.87,26,11,30,0.00
2013-12-6,28.4,24.4,22.1,23.4,20.4,15.8,93,85,76,30.57,30.14,21,9,24,0.00
2013-12-7,23.3,21.1,17.0,17.5,13.8,9.5,81,73,68,30.59,30.30,16,6,18,0.00
2013-12-8,41.3,29.8,22.4,29.9,24.4,17.2,94,81,62,30.30,30.05,13,4,13,0.19
2013-12-9,33.5,30.1,25.3,30.4,26.3,18.8,95,86,72,30.47,30.13,18,7,18,0.00
2013-12-10,40.5,28.7,16.8,22.7,18.4,13.6,88,67,41,30.56,30.35,12,4,13,0.24
2013-12-11,45.0,34.7,26.0,28.8,25.4,21.1,83,70,50,30.62,30.32,14,4,17,0.28
2013-12-12,46.3,36.4,24.7,34.0,28.7,20.8,88,74,56,30.62,30.25,10,3,13,0.15
2013-12-13,53.3,45.1,39.5,47.3,38.7,32.6,96,78,73,30.28,29.77,22,7,28,0.00
2013-12-14,54.1,42.0,32.3,44.2,34.7,26.4,91,76,58,30.35,29.77,27,10,30,0.00
2013-12-15,61.8,45.7,27.3,34.6,29.7,22.4,87,57,29,30.37,30.22,13,4,14,0.00
2013-12-16,67.9,52.2,34.8,37.0,33.2,26.4,76,50,30,30.23,30.11,13,5,15,0.00
2013-12-17,69.5,53.9,34.6,40.2,36.0,27.7,84,54,29,30.29,30.17,14,3,16,0.00
2013-12-18,69.7,55.9,39.6,49.2,42.9,33.4,83,63,41,30.24,29.93,23,6,24,0.00
2013-12-19,72.2,62.5,54.4,59.2,54.8,49.0,89,77,59,29.93,29.69,28,12,30,0.00
2013-12-20,66.8,50.0,31.7,62.2,47.3,30.4,95,91,72,29.84,29.69,21,7,22,0.01
2013-12-21,60.5,44.2,32.5,53.7,40.1,31.2,100,87,49,29.81,29.57,19,5,25,1.28
2013-12-22,42.3,35.8,28.9,38.4,29.1,24.8,95,77,57,30.41,29.81,24,8,24,0.01
2013-12-23,47.3,34.7,22.6,29.9,26.0,19.9,92,72,48,30.56,30.40,8,3,9,0.07
2013-12-24,55.6,39.9,25.3,36.3,29.9,23.3,100,70,46,30.55,30.22,21,8,23,0.00
2013-12-25,53.3,41.5,31.6,41.6,33.4,27.9,90,74,48,30.43,30.23,18,6,19,0.00
2013-12-26,53.2,40.2,30.0,34.4,29.7,26.3,92,69,40,30.47,30.34,9,3,9,0.00
2013-12-27,54.6,42.5,28.8,38.1,31.7,23.8,86,67,35,30.46,30.32,8,3,9,0.00
2013-12-28,61.4,49.5,37.1,44.2,40.1,33.7,91,72,49,30.32,29.93,16,5,16,0.00
2013-12-29,47.7,35.6,27.9,43.8,33.2,23.4,100,91,80,30.33,29.91,26,7,29,0.00
2013-12-30,44.9,33.3,24.8,24.9,22.1,18.2,83,65,44,30.44,30.28,15,4,17,0.00
2013-12-31,55.5,39.8,24.6,32.5,26.9,19.5,85,62,38,30.45,30.17,15,5,16,0.00
2014-1-1,70.7,49.1,31.8,46.3,35.7,24.3,92,63,37,30.25,29.86,30,10,33,0.00
2014-1-2,43.1,32.8,24.1,24.5,19.8,17.2,76,60,40,30.51,30.25,27,8,30,0.00